Location: Granada Hills
(34.2650°N, 118.5220°W)
Time: 08:15:48
(UTC-07:00)

deb Kosmos-1763 - Visible Passes

Search period start: 24 April 2017 00:00
Search period end: 04 May 2017 00:00
Orbit: 498 x 514 km, 74.0° (Epoch: 22 April)

Date Brightness Start Highest point End Pass type
(mag) Time Alt. Az. Time Alt. Az. Time Alt. Az.
26 Apr 6.8 05:32:43 10° SSE 05:35:42 22° E 05:38:41 10° NE visible
27 Apr 7.0 05:14:35 10° SE 05:17:15 18° E 05:19:56 10° NE visible
28 Apr 7.0 04:56:31 10° SE 04:58:47 15° E 05:01:04 10° ENE visible
29 Apr 7.1 04:38:34 10° SE 04:40:18 13° E 04:42:01 10° ENE visible
30 Apr 7.3 04:21:03 10° ESE 04:21:47 10° E 04:22:31 10° E visible
01 May 4.5 05:35:29 10° SW 05:39:09 46° WNW 05:42:51 10° N visible
02 May 4.3 05:16:46 10° SSW 05:20:30 57° WNW 05:24:17 10° N visible
03 May 4.1 04:58:44 15° SSW 05:01:51 71° WNW 05:05:41 10° NNE visible
